Weather Roundup
Issued by NWS Chicago, IL

Home | Current Version | Previous Version | Graphics & Text | Print | Product List | Glossary On
Versions: 1 2 3 4 5 6 7 8 9 10 11 12 13 14 15 16 17 18 19 20 21 22 23 24 25 26 27 28 29 30 31 32 33 34 35 36 37 38 39 40 41 42 43 44 45 46 47 48 49 50
000
NZUS59 KLOT 292100
HRRLOT

CHICAGO AREA WEATHER ROUNDUP
NATIONAL WEATHER SERVICE CHICAGO/ROMEOVILLE IL
400 PM CDT SAT AUG 29 2015

NOTE: "FAIR" INDICATES FEW OR NO CLOUDS BELOW 12,000 FEET WITH NO
SIGNIFICANT WEATHER AND/OR OBSTRUCTIONS TO VISIBILITY.

* THESE STATIONS ARE NOT UNDER NWS QUALITY CONTROL. THEY ALSO MAY NOT
  REPORT WEATHER SUCH AS PRECIPITATION OR FOG.

ILZ005-006-012>014-019>023-292200-
NORTHEAST ILLINOIS

CITY           SKY/WX    TMP DP  RH WIND       PRES   REMARKS
OHARE          CLOUDY    70  66  87 NW6       30.01R
MIDWAY         CLOUDY    74  64  71 NW8       30.00R
AURORA         CLOUDY    71  68  90 NW7       30.01S
WAUKEGAN       CLOUDY    66  64  94 CALM      30.01S FOG
DUPAGE AIRPORT LGT RAIN  70  66  87 NW3       30.00F
WHEELING       CLOUDY    70  64  81 W5        30.02S
NORTHERLY IS     N/A     68  63  84 N3          N/A
$$

WIZ051-052-058>065-066-070>072-292200-
SOUTHEAST WISCONSIN

CITY           SKY/WX    TMP DP  RH WIND       PRES   REMARKS
MILWAUKEE      FOG       60  59  96 NE6       30.03F VSB 1/2
KENOSHA*       CLOUDY    67  64  90 NE6       30.02F FOG
RACINE*        CLOUDY    61  59  93 N6        30.04F FOG
WAUKESHA       CLOUDY    63  61  94 E6        30.05S FOG
$$

INZ001>003-010>013-019-020-292200-
NORTHWEST INDIANA

CITY           SKY/WX    TMP DP  RH WIND       PRES   REMARKS
GARY*          CLOUDY    75  64  69 S7        30.00F
MICHIGAN CITY* NOT AVBL
RENSSELAER*    NOT AVBL
$$

LMZ740>746-292200-
SOUTHERN LAKE MICHIGAN

STATION/POSITION TIME  SKY/WX   TEMP WIND        PRES    VSBY
                                AIR  DIR/SP/G
                 (UTC)          (F)  (DEG/KT/KT) (MB)    (MI)
HARRISON CRIB    2000            71  180/  6/  6   N/A
BURNHAM HARBOR   2000            70  150/  4/  9   N/A
CALUMET HARBOR   NOT AVBL
BURNS HARBOR     2000            74  190/ 10/ 12 1016.6F
MICHIGAN CITY    2000            72  150/  7/  9   N/A
$$

ABBREVIATIONS USED IN REMARKS
   TC - TEMPERATURE IN CELSIUS
  WCI - WIND CHILL INDEX
   HX - HEAT INDEX
  VSB - VISIBILITY
$$


USA.gov is the U.S. government's official web portal to all federal, state and local government web resources and services.